GFA320 OBBI-OEJN

Flight info

Callsign GFA320
Flight time 2h 10m
Altitude 34000
Route BHR B457 NARMI N112 GETOT Q212 KIA G782 VEMEM VEME1C
Aircraft A320/M-V/N

Departure

Time 2026-04-27 15:35
Airport Bahrain International Airport (OBBI)

Arrival

Time 2026-04-27 17:46
Airport King Abdulaziz International Airport (OEJN)
Time Latitude Longitude Altitude Speed Heading
2026-04-27 14:59 26.26960 50.62780 7 ft 0 kts 212°
2026-04-27 15:24 26.26989 50.62800 20 ft 6 kts 212°
2026-04-27 15:24 26.27019 50.62821 18 ft 6 kts 212°
2026-04-27 15:25 26.27039 50.62853 18 ft 5 kts 282°
2026-04-27 15:25 26.27037 50.62860 18 ft 0 kts 299°
2026-04-27 15:25 26.27033 50.62841 18 ft 2 kts 243°
2026-04-27 15:26 26.27016 50.62821 18 ft 5 kts 217°
2026-04-27 15:26 26.27004 50.62811 19 ft 0 kts 216°
2026-04-27 15:27 26.27007 50.62814 19 ft 5 kts 214°
2026-04-27 15:27 26.27029 50.62862 21 ft 7 kts 283°
2026-04-27 15:27 26.27013 50.62904 21 ft 0 kts 304°
2026-04-27 15:28 26.27023 50.62891 18 ft 4 kts 321°
2026-04-27 15:28 26.27072 50.62888 17 ft 11 kts 15°
2026-04-27 15:29 26.27165 50.62886 17 ft 13 kts 313°
2026-04-27 15:29 26.27226 50.62774 18 ft 22 kts 303°
2026-04-27 15:29 26.27319 50.62617 17 ft 24 kts 303°
2026-04-27 15:29 26.27399 50.62477 17 ft 14 kts 302°
2026-04-27 15:30 26.27463 50.62365 17 ft 20 kts 302°
2026-04-27 15:30 26.27530 50.62245 16 ft 0 kts 302°
2026-04-27 15:30 26.27533 50.62239 16 ft 5 kts 302°
2026-04-27 15:30 26.27599 50.62125 18 ft 30 kts 303°
2026-04-27 15:31 26.27701 50.61958 17 ft 22 kts 303°
2026-04-27 15:31 26.27791 50.61804 18 ft 26 kts 302°
2026-04-27 15:31 26.27916 50.61656 18 ft 23 kts 345°
2026-04-27 15:31 26.27936 50.61653 18 ft 0 kts 356°
2026-04-27 15:32 26.27986 50.61672 19 ft 17 kts 30°
2026-04-27 15:32 26.27986 50.61811 20 ft 11 kts 123°
2026-04-27 15:33 26.27983 50.61816 19 ft 0 kts 123°
2026-04-27 15:34 26.27898 50.61962 19 ft 70 kts 123°
2026-04-27 15:35 26.27454 50.62724 18 ft 158 kts 122°
2026-04-27 15:35 26.26767 50.63869 494 ft 181 kts 122°
2026-04-27 15:35 26.26181 50.65207 1309 ft 207 kts 107°
2026-04-27 15:35 26.25992 50.66892 2265 ft 234 kts 85°
2026-04-27 15:36 26.26130 50.68819 3236 ft 263 kts 89°
2026-04-27 15:36 26.26087 50.70939 4146 ft 289 kts 92°
2026-04-27 15:36 26.26135 50.73295 4735 ft 318 kts 84°
2026-04-27 15:36 26.26541 50.75805 5362 ft 344 kts 77°
2026-04-27 15:37 26.27096 50.78509 5829 ft 371 kts 76°
2026-04-27 15:37 26.27879 50.81306 6222 ft 397 kts 71°
2026-04-27 15:37 26.28819 50.84312 6536 ft 418 kts 70°
2026-04-27 15:37 26.29814 50.87332 7636 ft 416 kts 68°
2026-04-27 15:38 26.30880 50.90331 8616 ft 404 kts 65°
2026-04-27 15:38 26.32276 50.92921 8855 ft 387 kts 49°
2026-04-27 15:38 26.34299 50.94923 8819 ft 391 kts 29°
2026-04-27 15:38 26.36742 50.96066 9552 ft 372 kts 12°
2026-04-27 15:39 26.39211 50.96484 10429 ft 350 kts 359°
2026-04-27 15:39 26.41564 50.96353 11388 ft 327 kts 347°
2026-04-27 15:39 26.43718 50.95765 12257 ft 312 kts 337°
2026-04-27 15:39 26.45715 50.94752 12363 ft 322 kts 326°
2026-04-27 15:40 26.47529 50.93221 12345 ft 333 kts 314°
2026-04-27 15:40 26.49043 50.91230 12320 ft 344 kts 302°
2026-04-27 15:40 26.50165 50.88830 12292 ft 353 kts 289°
2026-04-27 15:40 26.50783 50.86149 12262 ft 362 kts 277°
2026-04-27 15:41 26.50824 50.83309 12229 ft 367 kts 264°
2026-04-27 15:41 26.50450 50.81149 12017 ft 369 kts 254°
2026-04-27 15:41 26.49904 50.79512 11910 ft 380 kts 248°
2026-04-27 15:41 26.49541 50.78618 11874 ft 385 kts 247°
2026-04-27 15:42 26.48607 50.76349 11818 ft 372 kts 246°
2026-04-27 15:42 26.47519 50.73840 11811 ft 348 kts 245°
2026-04-27 15:42 26.46463 50.71433 11810 ft 325 kts 245°
2026-04-27 15:42 26.45531 50.69273 11811 ft 305 kts 246°
2026-04-27 15:43 26.44638 50.67167 11813 ft 299 kts 246°
2026-04-27 15:43 26.43738 50.64994 11810 ft 313 kts 246°
2026-04-27 15:43 26.42801 50.62743 11812 ft 325 kts 246°
2026-04-27 15:43 26.41842 50.60457 11810 ft 336 kts 246°
2026-04-27 15:44 26.40830 50.58066 11807 ft 345 kts 246°
2026-04-27 15:44 26.39790 50.55615 11812 ft 353 kts 245°
2026-04-27 15:44 26.38862 50.53430 11808 ft 359 kts 245°
2026-04-27 15:44 26.37782 50.50890 11811 ft 365 kts 245°
2026-04-27 15:45 26.36703 50.48352 11809 ft 370 kts 245°
2026-04-27 15:45 26.35598 50.45755 11866 ft 372 kts 245°
2026-04-27 15:45 26.34553 50.43301 12494 ft 357 kts 245°
2026-04-27 15:45 26.33587 50.41035 13323 ft 338 kts 246°
2026-04-27 15:46 26.32644 50.38820 14149 ft 319 kts 246°
2026-04-27 15:46 26.31754 50.36726 15013 ft 299 kts 247°
2026-04-27 15:46 26.31177 50.34544 15987 ft 276 kts 266°
2026-04-27 15:46 26.31147 50.32482 16950 ft 256 kts 269°
2026-04-27 15:47 26.31130 50.30509 17521 ft 254 kts 269°
2026-04-27 15:47 26.31114 50.28537 17888 ft 257 kts 269°
2026-04-27 15:47 26.31102 50.26535 18257 ft 258 kts 269°
2026-04-27 15:47 26.31094 50.24535 18631 ft 258 kts 269°
2026-04-27 15:48 26.31087 50.22534 19005 ft 258 kts 269°
2026-04-27 15:48 26.31081 50.20548 19371 ft 259 kts 268°
2026-04-27 15:48 26.31075 50.18528 19697 ft 259 kts 268°
2026-04-27 15:49 26.31057 50.14492 20324 ft 261 kts 268°
2026-04-27 15:49 26.31044 50.12465 20761 ft 262 kts 268°
2026-04-27 15:49 26.31034 50.10437 21198 ft 262 kts 267°
2026-04-27 15:49 26.31026 50.08399 21615 ft 263 kts 267°
2026-04-27 15:50 26.31019 50.06354 22005 ft 265 kts 267°
2026-04-27 15:50 26.31012 50.04315 22416 ft 266 kts 267°
2026-04-27 15:50 26.31004 50.02255 22818 ft 267 kts 267°
2026-04-27 15:50 26.30996 50.00175 23215 ft 268 kts 267°
2026-04-27 15:51 26.30988 49.98092 23560 ft 270 kts 267°
2026-04-27 15:51 26.30979 49.95990 23858 ft 272 kts 267°
2026-04-27 15:51 26.30969 49.93885 24187 ft 272 kts 267°
2026-04-27 15:51 26.30959 49.91769 24531 ft 273 kts 267°
2026-04-27 15:52 26.30948 49.89638 24821 ft 276 kts 267°
2026-04-27 15:52 26.30937 49.87526 25123 ft 277 kts 267°
2026-04-27 15:52 26.30925 49.85385 25430 ft 278 kts 267°
2026-04-27 15:52 26.30914 49.83325 25707 ft 280 kts 267°
2026-04-27 15:53 26.30903 49.81178 25984 ft 281 kts 267°
2026-04-27 15:53 26.30890 49.78978 26278 ft 282 kts 267°
2026-04-27 15:53 26.30877 49.76821 26563 ft 284 kts 267°
2026-04-27 15:53 26.30864 49.74593 26823 ft 286 kts 267°
2026-04-27 15:54 26.30850 49.72376 27092 ft 287 kts 267°
2026-04-27 15:54 26.30836 49.70149 27381 ft 288 kts 267°
2026-04-27 15:54 26.30821 49.67911 27642 ft 290 kts 267°
2026-04-27 15:54 26.30806 49.65655 27881 ft 292 kts 268°
2026-04-27 15:55 26.30791 49.63391 28152 ft 293 kts 267°
2026-04-27 15:55 26.30780 49.61910 28320 ft 293 kts 268°
2026-04-27 15:55 26.30759 49.58868 28639 ft 295 kts 267°
2026-04-27 15:55 26.30742 49.56560 28856 ft 297 kts 267°
2026-04-27 15:56 26.30725 49.54248 29085 ft 298 kts 268°
2026-04-27 15:56 26.30708 49.51938 29320 ft 299 kts 268°
2026-04-27 15:56 26.30690 49.49636 29534 ft 301 kts 267°
2026-04-27 15:56 26.30671 49.47272 29728 ft 303 kts 268°
2026-04-27 15:57 26.30652 49.44934 29922 ft 304 kts 268°
2026-04-27 15:57 26.30633 49.42585 30147 ft 304 kts 268°
2026-04-27 15:57 26.30613 49.40228 30397 ft 303 kts 267°
2026-04-27 15:57 26.30513 49.37872 30584 ft 304 kts 265°
2026-04-27 15:58 26.30356 49.35519 30785 ft 305 kts 264°
2026-04-27 15:58 26.30192 49.33166 31002 ft 305 kts 264°
2026-04-27 15:58 26.30038 49.30818 31221 ft 305 kts 265°
2026-04-27 15:58 26.29891 49.28456 31435 ft 305 kts 265°
2026-04-27 15:59 26.29749 49.26102 31592 ft 306 kts 265°
2026-04-27 15:59 26.29608 49.23727 31784 ft 308 kts 265°
2026-04-27 15:59 26.29467 49.21342 31969 ft 308 kts 265°
2026-04-27 15:59 26.29326 49.18959 32159 ft 308 kts 265°
2026-04-27 16:00 26.29183 49.16562 32349 ft 309 kts 265°
2026-04-27 16:00 26.29089 49.14993 32469 ft 309 kts 265°
2026-04-27 16:00 26.28899 49.11809 32645 ft 311 kts 265°
2026-04-27 16:00 26.28754 49.09403 32814 ft 312 kts 265°
2026-04-27 16:01 26.28607 49.06965 32993 ft 311 kts 265°
2026-04-27 16:01 26.28463 49.04589 33183 ft 311 kts 265°
2026-04-27 16:01 26.28316 49.02177 33317 ft 312 kts 265°
2026-04-27 16:01 26.28169 48.99761 33443 ft 312 kts 265°
2026-04-27 16:02 26.28022 48.97351 33553 ft 314 kts 265°
2026-04-27 16:02 26.27724 48.92488 33766 ft 315 kts 265°
2026-04-27 16:03 26.27421 48.87567 33805 ft 321 kts 265°
2026-04-27 16:03 26.27163 48.83399 33807 ft 327 kts 265°
2026-04-27 16:04 26.26845 48.78285 33804 ft 334 kts 265°
2026-04-27 16:04 26.26520 48.73088 33805 ft 341 kts 265°
2026-04-27 16:05 26.26186 48.67776 33803 ft 347 kts 265°
2026-04-27 16:05 26.25844 48.62371 33809 ft 352 kts 265°
2026-04-27 16:06 26.25495 48.56881 33811 ft 358 kts 265°
2026-04-27 16:06 26.25139 48.51327 33815 ft 362 kts 265°
2026-04-27 16:07 26.24777 48.45695 33816 ft 367 kts 265°
2026-04-27 16:07 26.24408 48.39979 33822 ft 371 kts 265°
2026-04-27 16:08 26.24035 48.34220 33815 ft 375 kts 265°
2026-04-27 16:08 26.23658 48.28417 33820 ft 378 kts 265°
2026-04-27 16:09 26.23278 48.22586 33821 ft 380 kts 265°
2026-04-27 16:09 26.22508 48.13801 33830 ft 384 kts 255°
2026-04-27 16:10 26.19881 48.08575 33831 ft 398 kts 232°
2026-04-27 16:10 26.15326 48.04865 33832 ft 414 kts 219°
2026-04-27 16:11 26.08134 47.99572 33835 ft 414 kts 223°
2026-04-27 16:12 26.01138 47.93842 33837 ft 417 kts 224°
2026-04-27 16:13 25.94114 47.88054 33839 ft 419 kts 223°
2026-04-27 16:13 25.87114 47.82301 33846 ft 420 kts 223°
2026-04-27 16:14 25.77711 47.74587 33848 ft 421 kts 223°
2026-04-27 16:15 25.68281 47.66867 33854 ft 422 kts 223°
2026-04-27 16:16 25.58821 47.59131 33856 ft 423 kts 223°
2026-04-27 16:17 25.49371 47.51411 33866 ft 424 kts 223°
2026-04-27 16:18 25.39856 47.43656 33867 ft 425 kts 223°
2026-04-27 16:19 25.35086 47.39788 33869 ft 425 kts 223°
2026-04-27 16:20 25.25505 47.32058 33877 ft 426 kts 223°
2026-04-27 16:21 25.18344 47.26315 33873 ft 427 kts 223°
2026-04-27 16:21 25.11524 47.20132 33880 ft 415 kts 237°
2026-04-27 16:22 25.10005 47.17459 33894 ft 408 kts 246°
2026-04-27 16:22 25.06156 47.09054 33882 ft 409 kts 247°
2026-04-27 16:23 25.02327 47.00633 33878 ft 410 kts 247°
2026-04-27 16:24 24.99773 46.95023 33896 ft 410 kts 247°
2026-04-27 16:25 24.94647 46.83787 33889 ft 410 kts 247°
2026-04-27 16:26 24.90505 46.74709 33898 ft 414 kts 247°
2026-04-27 16:27 24.86013 46.64891 33887 ft 419 kts 247°
2026-04-27 16:28 24.79414 46.50530 33897 ft 421 kts 247°
2026-04-27 16:29 24.73169 46.36981 33898 ft 423 kts 246°
2026-04-27 16:30 24.67835 46.25455 33899 ft 422 kts 246°
2026-04-27 16:31 24.61198 46.11132 33893 ft 422 kts 246°
2026-04-27 16:32 24.57201 46.02526 33891 ft 422 kts 246°
2026-04-27 16:33 24.53654 45.93726 33892 ft 420 kts 250°
2026-04-27 16:33 24.51380 45.87796 33891 ft 420 kts 250°
2026-04-27 16:34 24.49149 45.81872 33887 ft 420 kts 251°
2026-04-27 16:34 24.46923 45.75938 33886 ft 420 kts 251°
2026-04-27 16:35 24.44697 45.70010 33886 ft 420 kts 251°
2026-04-27 16:36 24.41370 45.61168 33885 ft 419 kts 251°
2026-04-27 16:36 24.39138 45.55253 33888 ft 420 kts 251°
2026-04-27 16:37 24.36899 45.49329 33880 ft 420 kts 251°
2026-04-27 16:37 24.34661 45.43417 34054 ft 416 kts 251°
2026-04-27 16:38 24.32448 45.37575 34081 ft 418 kts 251°
2026-04-27 16:38 24.30214 45.31687 34091 ft 419 kts 251°
2026-04-27 16:39 24.27973 45.25791 34091 ft 419 kts 250°
2026-04-27 16:39 24.25725 45.19884 34090 ft 420 kts 250°
2026-04-27 16:40 24.23476 45.13982 34094 ft 420 kts 250°
2026-04-27 16:40 24.21316 45.08321 34097 ft 421 kts 250°
2026-04-27 16:41 24.19306 45.03059 34093 ft 421 kts 250°
2026-04-27 16:41 24.17042 44.97137 34101 ft 421 kts 250°
2026-04-27 16:42 24.14788 44.91255 34097 ft 421 kts 250°
2026-04-27 16:42 24.12516 44.85334 34104 ft 421 kts 250°
2026-04-27 16:43 24.10245 44.79421 34107 ft 422 kts 250°
2026-04-27 16:43 24.07967 44.73500 34102 ft 422 kts 250°
2026-04-27 16:44 24.05690 44.67586 34109 ft 422 kts 250°
2026-04-27 16:44 24.03408 44.61671 34109 ft 422 kts 250°
2026-04-27 16:45 24.01125 44.55759 34109 ft 422 kts 250°
2026-04-27 16:45 23.98855 44.49889 34108 ft 421 kts 250°
2026-04-27 16:46 23.96571 44.43991 34107 ft 421 kts 250°
2026-04-27 16:46 23.94280 44.38085 34107 ft 421 kts 250°
2026-04-27 16:47 23.91991 44.32191 34105 ft 422 kts 250°
2026-04-27 16:47 23.89694 44.26283 34104 ft 422 kts 250°
2026-04-27 16:48 23.87397 44.20385 34106 ft 422 kts 250°
2026-04-27 16:48 23.85097 44.14487 34105 ft 422 kts 250°
2026-04-27 16:49 23.81641 44.05636 34108 ft 422 kts 250°
2026-04-27 16:49 23.79333 43.99734 34111 ft 422 kts 250°
2026-04-27 16:50 23.77413 43.94831 34115 ft 423 kts 250°
2026-04-27 16:50 23.74721 43.87968 34125 ft 423 kts 250°
2026-04-27 16:51 23.72405 43.82069 34129 ft 423 kts 250°
2026-04-27 16:51 23.70084 43.76166 34133 ft 423 kts 250°
2026-04-27 16:52 23.67760 43.70264 34139 ft 423 kts 250°
2026-04-27 16:52 23.65811 43.65320 34145 ft 423 kts 250°
2026-04-27 16:53 23.63498 43.59457 34146 ft 424 kts 250°
2026-04-27 16:53 23.61165 43.53553 34147 ft 424 kts 250°
2026-04-27 16:54 23.58827 43.47640 34148 ft 424 kts 250°
2026-04-27 16:54 23.56486 43.41731 34155 ft 425 kts 249°
2026-04-27 16:55 23.54142 43.35822 34157 ft 425 kts 249°
2026-04-27 16:55 23.51791 43.29903 34156 ft 425 kts 249°
2026-04-27 16:56 23.49437 43.23983 34160 ft 425 kts 249°
2026-04-27 16:56 23.47099 43.18112 34158 ft 425 kts 249°
2026-04-27 16:57 23.44739 43.12196 34166 ft 425 kts 249°
2026-04-27 16:57 23.42378 43.06283 34161 ft 426 kts 249°
2026-04-27 16:58 23.40015 43.00374 34155 ft 426 kts 249°
2026-04-27 16:58 23.37647 42.94459 34170 ft 426 kts 249°
2026-04-27 16:59 23.35276 42.88547 34166 ft 426 kts 249°
2026-04-27 16:59 23.32902 42.82630 34164 ft 426 kts 249°
2026-04-27 17:00 23.29351 42.73800 34164 ft 427 kts 249°
2026-04-27 17:01 23.26969 42.67885 34162 ft 427 kts 249°
2026-04-27 17:01 23.24583 42.61966 34167 ft 427 kts 249°
2026-04-27 17:02 23.22192 42.56045 34169 ft 427 kts 249°
2026-04-27 17:02 23.19797 42.50119 34165 ft 428 kts 249°
2026-04-27 17:03 23.17417 42.44241 34163 ft 429 kts 249°
2026-04-27 17:03 23.15009 42.38301 34159 ft 429 kts 249°
2026-04-27 17:04 23.12632 42.32442 34128 ft 430 kts 249°
2026-04-27 17:04 23.10209 42.26479 34079 ft 431 kts 249°
2026-04-27 17:05 23.07783 42.20517 34024 ft 432 kts 249°
2026-04-27 17:05 23.05348 42.14538 33965 ft 433 kts 249°
2026-04-27 17:06 23.02921 42.08589 33910 ft 434 kts 249°
2026-04-27 17:06 23.01701 42.05602 33754 ft 428 kts 249°
2026-04-27 17:06 23.00498 42.02689 33306 ft 417 kts 249°
2026-04-27 17:06 22.99317 41.99856 32896 ft 407 kts 248°
2026-04-27 17:07 22.98153 41.97095 32501 ft 398 kts 248°
2026-04-27 17:07 22.97003 41.94393 32119 ft 389 kts 248°
2026-04-27 17:07 22.95873 41.91766 31720 ft 382 kts 248°
2026-04-27 17:07 22.94746 41.89172 31295 ft 375 kts 248°
2026-04-27 17:08 22.93634 41.86638 30895 ft 369 kts 248°
2026-04-27 17:08 22.92532 41.84152 30506 ft 362 kts 248°
2026-04-27 17:08 22.91459 41.81754 30135 ft 356 kts 247°
2026-04-27 17:08 22.90359 41.79319 29705 ft 350 kts 247°
2026-04-27 17:09 22.89290 41.76971 29284 ft 344 kts 246°
2026-04-27 17:09 22.88233 41.74669 28865 ft 338 kts 246°
2026-04-27 17:09 22.87205 41.72444 28465 ft 333 kts 246°
2026-04-27 17:09 22.86225 41.70175 27957 ft 336 kts 252°
2026-04-27 17:10 22.85540 41.67711 27759 ft 344 kts 255°
2026-04-27 17:10 22.84840 41.65217 27726 ft 347 kts 252°
2026-04-27 17:10 22.84019 41.62745 27696 ft 350 kts 250°
2026-04-27 17:10 22.83098 41.60292 27669 ft 352 kts 249°
2026-04-27 17:11 22.82118 41.57846 27638 ft 355 kts 248°
2026-04-27 17:11 22.80087 41.52933 27585 ft 359 kts 247°
2026-04-27 17:11 22.79059 41.50457 27566 ft 361 kts 247°
2026-04-27 17:12 22.76993 41.45471 27505 ft 364 kts 247°
2026-04-27 17:12 22.75952 41.42959 27471 ft 366 kts 247°
2026-04-27 17:12 22.74909 41.40442 27440 ft 368 kts 247°
2026-04-27 17:13 22.73872 41.37940 27417 ft 369 kts 247°
2026-04-27 17:13 22.72816 41.35394 27378 ft 370 kts 247°
2026-04-27 17:13 22.71758 41.32844 27355 ft 372 kts 247°
2026-04-27 17:13 22.70696 41.30285 27325 ft 373 kts 247°
2026-04-27 17:14 22.69631 41.27720 27284 ft 374 kts 247°
2026-04-27 17:14 22.68547 41.25110 27262 ft 375 kts 247°
2026-04-27 17:14 22.67487 41.22561 27232 ft 377 kts 247°
2026-04-27 17:14 22.66409 41.19968 27197 ft 378 kts 247°
2026-04-27 17:15 22.65329 41.17374 27171 ft 379 kts 247°
2026-04-27 17:15 22.64245 41.14771 27149 ft 380 kts 247°
2026-04-27 17:15 22.63158 41.12161 27111 ft 381 kts 247°
2026-04-27 17:15 22.62068 41.09546 27079 ft 382 kts 247°
2026-04-27 17:16 22.60973 41.06922 27053 ft 383 kts 247°
2026-04-27 17:16 22.59877 41.04295 27017 ft 383 kts 247°
2026-04-27 17:16 22.58775 41.01655 26990 ft 384 kts 247°
2026-04-27 17:16 22.57680 40.99034 26960 ft 385 kts 246°
2026-04-27 17:17 22.56571 40.96380 26932 ft 385 kts 246°
2026-04-27 17:17 22.55473 40.93754 26907 ft 386 kts 246°
2026-04-27 17:17 22.54358 40.91089 26867 ft 386 kts 246°
2026-04-27 17:18 22.52137 40.85784 26777 ft 388 kts 246°
2026-04-27 17:18 22.51040 40.83166 26739 ft 388 kts 246°
2026-04-27 17:18 22.49907 40.80464 26691 ft 389 kts 246°
2026-04-27 17:18 22.48789 40.77800 26632 ft 390 kts 246°
2026-04-27 17:19 22.47667 40.75126 26582 ft 391 kts 246°
2026-04-27 17:19 22.46542 40.72446 26527 ft 391 kts 246°
2026-04-27 17:19 22.45413 40.69761 26470 ft 392 kts 246°
2026-04-27 17:19 22.44285 40.67078 26419 ft 393 kts 246°
2026-04-27 17:20 22.43152 40.64384 26360 ft 394 kts 246°
2026-04-27 17:20 22.42017 40.61688 26295 ft 395 kts 246°
2026-04-27 17:20 22.40892 40.59019 26229 ft 396 kts 246°
2026-04-27 17:20 22.39749 40.56306 26153 ft 397 kts 246°
2026-04-27 17:21 22.38602 40.53586 26080 ft 398 kts 246°
2026-04-27 17:21 22.37453 40.50864 26002 ft 399 kts 246°
2026-04-27 17:21 22.36299 40.48128 25908 ft 400 kts 246°
2026-04-27 17:21 22.35142 40.45389 25835 ft 401 kts 246°
2026-04-27 17:22 22.33981 40.42643 25718 ft 403 kts 245°
2026-04-27 17:22 22.32815 40.39885 25640 ft 403 kts 245°
2026-04-27 17:22 22.31646 40.37123 25538 ft 405 kts 245°
2026-04-27 17:22 22.30473 40.34352 25421 ft 406 kts 245°
2026-04-27 17:23 22.29296 40.31575 25320 ft 407 kts 245°
2026-04-27 17:23 22.28116 40.28790 25224 ft 408 kts 245°
2026-04-27 17:23 22.26930 40.25994 25091 ft 410 kts 245°
2026-04-27 17:23 22.25742 40.23193 24939 ft 412 kts 245°
2026-04-27 17:24 22.24547 40.20373 24812 ft 413 kts 245°
2026-04-27 17:24 22.23350 40.17548 24682 ft 415 kts 245°
2026-04-27 17:24 22.22144 40.14708 24542 ft 416 kts 245°
2026-04-27 17:24 22.20933 40.11858 24392 ft 418 kts 245°
2026-04-27 17:25 22.19735 40.09043 24231 ft 420 kts 245°
2026-04-27 17:25 22.18517 40.06182 24205 ft 418 kts 245°
2026-04-27 17:25 22.17304 40.03336 24042 ft 419 kts 245°
2026-04-27 17:25 22.16083 40.00473 23813 ft 421 kts 245°
2026-04-27 17:26 22.14856 39.97595 23533 ft 424 kts 244°
2026-04-27 17:26 22.13618 39.94697 23188 ft 427 kts 244°
2026-04-27 17:26 22.12382 39.91805 22829 ft 430 kts 244°
2026-04-27 17:26 22.11120 39.88853 22626 ft 429 kts 244°
2026-04-27 17:27 22.09872 39.85934 22452 ft 428 kts 245°
2026-04-27 17:27 22.08628 39.83026 22271 ft 427 kts 245°
2026-04-27 17:27 22.07388 39.80127 22069 ft 426 kts 245°
2026-04-27 17:27 22.06142 39.77219 21900 ft 425 kts 245°
2026-04-27 17:28 22.04908 39.74336 21738 ft 425 kts 245°
2026-04-27 17:28 22.03666 39.71434 21551 ft 424 kts 245°
2026-04-27 17:28 22.01196 39.65673 21277 ft 422 kts 245°
2026-04-27 17:29 21.99964 39.62800 21122 ft 422 kts 245°
2026-04-27 17:29 21.98745 39.59962 20969 ft 421 kts 245°
2026-04-27 17:29 21.97514 39.57095 20804 ft 422 kts 245°
2026-04-27 17:29 21.96283 39.54231 20717 ft 420 kts 245°
2026-04-27 17:30 21.95059 39.51383 20589 ft 419 kts 245°
2026-04-27 17:30 21.92473 39.45763 20317 ft 418 kts 239°
2026-04-27 17:30 21.90720 39.43266 20179 ft 420 kts 227°
2026-04-27 17:31 21.88467 39.41254 20064 ft 423 kts 216°
2026-04-27 17:31 21.85880 39.39707 19956 ft 425 kts 210°
2026-04-27 17:31 21.83218 39.38323 19839 ft 425 kts 208°
2026-04-27 17:31 21.80534 39.36971 19678 ft 426 kts 208°
2026-04-27 17:32 21.77844 39.35625 19553 ft 426 kts 208°
2026-04-27 17:32 21.72506 39.33017 18141 ft 423 kts 207°
2026-04-27 17:32 21.70060 39.31811 16341 ft 357 kts 210°
2026-04-27 17:33 21.68103 39.30474 14532 ft 314 kts 217°
2026-04-27 17:33 21.66435 39.29161 12818 ft 285 kts 217°
2026-04-27 17:33 21.64772 39.28125 11142 ft 268 kts 207°
2026-04-27 17:33 21.63069 39.27444 9575 ft 257 kts 198°
2026-04-27 17:34 21.61337 39.27103 8086 ft 250 kts 184°
2026-04-27 17:34 21.59696 39.27512 7056 ft 238 kts 157°
2026-04-27 17:34 21.58333 39.28449 6120 ft 229 kts 144°
2026-04-27 17:34 21.57160 39.29521 5371 ft 216 kts 140°
2026-04-27 17:35 21.56014 39.30604 4744 ft 223 kts 140°
2026-04-27 17:35 21.54890 39.31613 4830 ft 204 kts 143°
2026-04-27 17:35 21.53755 39.32478 4699 ft 205 kts 148°
2026-04-27 17:35 21.52516 39.33266 4900 ft 209 kts 154°
2026-04-27 17:36 21.51052 39.33971 5084 ft 252 kts 160°
2026-04-27 17:36 21.49273 39.34657 5240 ft 293 kts 161°
2026-04-27 17:36 21.47207 39.35429 5238 ft 335 kts 161°
2026-04-27 17:36 21.44837 39.36062 5218 ft 368 kts 175°
2026-04-27 17:37 21.42219 39.35885 5196 ft 395 kts 192°
2026-04-27 17:37 21.39637 39.35006 5043 ft 378 kts 204°
2026-04-27 17:37 21.37481 39.33537 4467 ft 360 kts 223°
2026-04-27 17:37 21.35843 39.31587 4196 ft 343 kts 224°
2026-04-27 17:38 21.34350 39.29690 4100 ft 324 kts 238°
2026-04-27 17:38 21.33557 39.27528 4376 ft 302 kts 261°
2026-04-27 17:38 21.33806 39.25423 4760 ft 278 kts 296°
2026-04-27 17:38 21.35104 39.24026 5068 ft 260 kts 335°
2026-04-27 17:39 21.36218 39.23644 5030 ft 250 kts 348°
2026-04-27 17:39 21.37929 39.23544 4753 ft 244 kts
2026-04-27 17:39 21.39551 39.23977 4491 ft 239 kts 18°
2026-04-27 17:39 21.41093 39.24531 4333 ft 229 kts 13°
2026-04-27 17:40 21.42632 39.24728 4232 ft 216 kts 355°
2026-04-27 17:40 21.44525 39.24426 4192 ft 197 kts 348°
2026-04-27 17:40 21.45850 39.24086 3930 ft 196 kts 346°
2026-04-27 17:40 21.46752 39.23842 3653 ft 199 kts 345°
2026-04-27 17:41 21.48095 39.23434 3277 ft 201 kts 344°
2026-04-27 17:41 21.49418 39.22970 2957 ft 198 kts 341°
2026-04-27 17:41 21.50674 39.22498 2633 ft 186 kts 340°
2026-04-27 17:41 21.51815 39.22059 2384 ft 165 kts 342°
2026-04-27 17:42 21.52840 39.21649 2136 ft 150 kts 340°
2026-04-27 17:42 21.53760 39.21269 1979 ft 133 kts 341°
2026-04-27 17:42 21.54614 39.20951 1929 ft 135 kts 342°
2026-04-27 17:42 21.55549 39.20562 1978 ft 149 kts 341°
2026-04-27 17:43 21.56553 39.20176 1929 ft 158 kts 345°
2026-04-27 17:43 21.57632 39.19785 1826 ft 169 kts 342°
2026-04-27 17:43 21.58748 39.19330 1647 ft 164 kts 343°
2026-04-27 17:43 21.59757 39.18960 1448 ft 147 kts 341°
2026-04-27 17:44 21.60720 39.18593 1068 ft 141 kts 341°
2026-04-27 17:44 21.61561 39.18257 977 ft 121 kts 342°
2026-04-27 17:44 21.62322 39.17955 901 ft 120 kts 340°
2026-04-27 17:44 21.63164 39.17631 696 ft 135 kts 342°
2026-04-27 17:45 21.64056 39.17284 522 ft 139 kts 341°
2026-04-27 17:45 21.64952 39.16937 351 ft 134 kts 339°
2026-04-27 17:45 21.65811 39.16604 199 ft 128 kts 340°
2026-04-27 17:45 21.66636 39.16280 46 ft 123 kts 340°
2026-04-27 17:46 21.67371 39.15994 34 ft 83 kts 340°
2026-04-27 17:46 21.67665 39.15878 34 ft 32 kts 339°
2026-04-27 17:46 21.67895 39.15783 31 ft 37 kts 340°
2026-04-27 17:46 21.68013 39.15736 33 ft 14 kts 336°
2026-04-27 17:47 21.68107 39.15679 32 ft 17 kts 326°
2026-04-27 17:47 21.68182 39.15620 31 ft 24 kts 312°
2026-04-27 17:47 21.68309 39.15446 30 ft 6 kts 309°
2026-04-27 17:47 21.68340 39.15399 31 ft 10 kts 292°
2026-04-27 17:48 21.68331 39.15319 31 ft 12 kts 249°
2026-04-27 17:48 21.68296 39.15218 31 ft 16 kts 250°
2026-04-27 17:48 21.68255 39.15091 31 ft 20 kts 251°
2026-04-27 17:48 21.68200 39.14939 31 ft 23 kts 249°
2026-04-27 17:49 21.68143 39.14764 30 ft 26 kts 252°
2026-04-27 17:49 21.68075 39.14570 28 ft 27 kts 248°
2026-04-27 17:49 21.68030 39.14449 27 ft 19 kts 250°
2026-04-27 17:49 21.67981 39.14301 29 ft 23 kts 252°
2026-04-27 17:50 21.67924 39.14129 27 ft 26 kts 251°
2026-04-27 17:50 21.67894 39.13939 24 ft 7 kts 321°
2026-04-27 17:50 21.67949 39.13909 26 ft 10 kts 335°
2026-04-27 17:51 21.68026 39.13876 24 ft 13 kts 338°
2026-04-27 17:51 21.68123 39.13839 26 ft 16 kts 342°
2026-04-27 17:51 21.68240 39.13800 25 ft 19 kts 343°
2026-04-27 17:51 21.68310 39.13782 26 ft 9 kts
2026-04-27 17:52 21.68360 39.13823 25 ft 11 kts 62°
2026-04-27 17:52 21.68391 39.13908 25 ft 14 kts 71°
2026-04-27 17:52 21.68427 39.14017 29 ft 17 kts 70°
2026-04-27 17:52 21.68472 39.14147 28 ft 20 kts 68°
2026-04-27 17:53 21.68526 39.14292 27 ft 22 kts 70°
2026-04-27 17:53 21.68583 39.14455 28 ft 24 kts 69°
2026-04-27 17:53 21.68641 39.14634 29 ft 26 kts 70°
2026-04-27 17:53 21.68711 39.14824 30 ft 28 kts 72°
2026-04-27 17:54 21.68726 39.14966 30 ft 14 kts 134°
2026-04-27 17:54 21.68633 39.14950 30 ft 16 kts 229°
2026-04-27 17:54 21.68594 39.14838 30 ft 18 kts 250°
2026-04-27 17:54 21.68550 39.14700 30 ft 21 kts 252°
2026-04-27 17:55 21.68496 39.14543 29 ft 22 kts 249°
2026-04-27 17:55 21.68457 39.14430 28 ft 18 kts 248°
2026-04-27 17:55 21.68408 39.14293 27 ft 22 kts 250°
2026-04-27 17:55 21.68356 39.14127 27 ft 25 kts 251°
2026-04-27 17:56 21.68312 39.13972 28 ft 17 kts 282°
2026-04-27 17:56 21.68393 39.13941 26 ft 12 kts 31°
2026-04-27 17:56 21.68433 39.14025 28 ft 14 kts 72°
2026-04-27 17:56 21.68496 39.14086 25 ft 14 kts 348°
2026-04-27 17:57 21.68591 39.14041 25 ft 16 kts 339°
2026-04-27 17:57 21.68706 39.13993 27 ft 19 kts 339°
2026-04-27 17:57 21.68836 39.13943 26 ft 21 kts 341°
2026-04-27 17:57 21.68952 39.13900 27 ft 16 kts 341°
2026-04-27 17:58 21.69065 39.13858 27 ft 18 kts 341°
2026-04-27 17:58 21.69193 39.13809 28 ft 21 kts 339°
2026-04-27 17:58 21.69289 39.13720 26 ft 19 kts 270°
2026-04-27 17:58 21.69252 39.13580 24 ft 19 kts 272°
2026-04-27 17:59 21.69270 39.13488 24 ft 0 kts 246°
2026-04-27 17:59 21.69268 39.13484 24 ft 0 kts 246°